Regional Weather Roundup
Issued by NWS

Home | Current Version | Previous Version | Text Only | Print | Product List | Glossary Off
Versions: 1 2 3 4 5 6 7 8 9 10 11 12 13 14 15 16 17 18 19 20 21 22 23 24 25 26 27 28 29 30 31 32 33 34 35 36 37 38 39 40 41 42 43 44 45 46 47 48 49 50

000
ASUS43 KLOT 221908
RWRIL

ILLINOIS REGIONAL WEATHER ROUNDUP
NATIONAL WEATHER SERVICE CHICAGO/ROMEOVILLE IL
100 PM CST THU FEB 22 2018

NOTE: "FAIR" INDICATES FEW OR NO CLOUDS BELOW 12,000 FEET WITH NO
SIGNIFICANT WEATHER AND/OR OBSTRUCTIONS TO VISIBILITY.

* THESE STATIONS ARE NOT UNDER NWS QUALITY CONTROL. THEY ALSO MAY NOT
  REPORT WEATHER SUCH AS PRECIPITATION OR FOG.

ILZ001-002-007-009-015-016-024-222000-
NORTHWEST ILLINOIS

CITY           SKY/WX    TMP DP  RH WIND       PRES   REMARKS
MOLINE         CLOUDY    38  30  73 E18       30.40F WCI  28
STERLING*      CLOUDY   N/A N/A N/A MISG        N/A
SAVANNA*       CLOUDY    35  28  75 E14       30.44F WCI  26
$$

ILZ003-004-008-010-011-017-018-222000-
NORTH CENTRAL ILLINOIS

CITY           SKY/WX    TMP DP  RH WIND       PRES   REMARKS
ROCKFORD       CLOUDY    36  28  73 E13       30.50F WCI  27
FREEPORT*      CLOUDY    35  28  77 E14       30.48F WCI  25
ROCHELLE*      CLOUDY    38  31  76 E15       30.45F WCI  30
DE KALB*       CLOUDY    40  32  73 E16       30.46F
PERU*          CLOUDY    39  33  77 E18       30.42F WCI  30
$$

ILZ005-006-012>014-019>023-222000-
NORTHEAST ILLINOIS

CITY           SKY/WX    TMP DP  RH WIND       PRES   REMARKS
CHICAGO-OHARE  PTSUNNY   39  29  67 NE15      30.48F WCI  31
CHICAGO-MIDWAY PTSUNNY   39  31  72 E17G24    30.48F WCI  30
AURORA         PTSUNNY   43  32  65 NE15      30.45F
LANSING*       CLOUDY    39  33  80 NE12      30.47F WCI  32
JOLIET*        CLOUDY    43  34  70 E14       30.45F
WAUKEGAN       CLOUDY    35  30  82 E13G21    30.51F WCI  26
DUPAGE AIRPORT CLOUDY    41  32  70 E15G23    30.46F
KANKAKEE*      CLOUDY    44  37  77 E17G24    30.42F
WHEELING       FAIR      38  29  70 NE13      30.51F WCI  30
MORRIS*        CLOUDY    42  35  75 E14       30.43F
ROMEOVILLE*    CLOUDY    40  33  74 E14       30.45F
NORTHERLY ISL    N/A     36  30  79 N14         N/A  WCI  27
$$

LMZ740>746-222000-
SOUTHERN LAKE MICHIGAN

STATION/POSITION SKY/WX   TEMP    WIND        PRES    VSBY  WAVE
                          AIR SEA DIR/SP/G                  HT/PER
                          (F)     (DEG/KT/KT) (MB)    (MI)  (FT/S)
HARRISON CRIB              34      50/ 15/ 16   N/A
BURNHAM HARBOR             36      30/ 14       N/A
CALUMET HARBOR             34      30/ 13/ 16 1031.6F
BURNS HARBOR               35      40/ 11/ 13 1032.8F
MICHIGAN CITY              38      60/  9/ 12   N/A
$$

ILZ025>027-034>036-040-047-049-050-058-095>099-222000-
WEST-CENTRAL ILLINOIS

CITY           SKY/WX    TMP DP  RH WIND       PRES   REMARKS
QUINCY         FOG       34  34 100 E10       30.32F VSB 3/4 WCI  26
GALESBURG*     CLOUDY    38  34  85 E13G20    30.38F WCI  30
MACOMB*        CLOUDY    36  35  96 E12       30.38F FOG     WCI  27
JACKSONVILLE*  CLOUDY    37  36  95 NE6       30.34F FOG     WCI  32
PITTSFIELD*    FOG       36  35  99 E12       30.33F VSB 3/4 WCI  27
$$

ILZ028>032-037-038-041>044-048-051>054-059>061-222000-
CENTRAL ILLINOIS

CITY           SKY/WX    TMP DP  RH WIND       PRES   REMARKS
PONTIAC        CLOUDY    43  42  98 E20       30.41F
BLOOMINGTON    CLOUDY    41  39  93 E20       30.38F
DECATUR        CLOUDY    43  40  89 E20       30.36F
PEORIA         CLOUDY    39  36  89 E13       30.40F WCI  31
LACON*         CLOUDY    40  36  86 E10       30.41F
LINCOLN*       CLOUDY    44  42  92 E13       30.37F
SPRINGFIELD    CLOUDY    44  40  85 E13       30.36F
TAYLORVILLE    CLOUDY    43  40  92 E13       30.35F
$$

ILZ033-039-045-046-055>057-062-063-222000-
EAST-CENTRAL ILLINOIS

CITY           SKY/WX    TMP DP  RH WIND       PRES   REMARKS
CHAMPAIGN      CLOUDY    43  41  93 E20       30.38F
DANVILLE*      CLOUDY    43  39  88 E16G23    30.38F
RANTOUL*       CLOUDY    45  42  89 E18       30.39F
MATTOON        CLOUDY    44  40  85 E8        30.36F
PARIS*         CLOUDY    43  40  90 E12       30.39F
$$

ILZ079-100>102-222000-
SOUTHWEST ILLINOIS

CITY           SKY/WX    TMP DP  RH WIND       PRES   REMARKS
ALTON          CLOUDY    43  43 100 E5        30.34F FOG
BELLEVILLE     CLOUDY    45  41  87 E6        30.31F
CAHOKIA*       CLOUDY    43  41  93 E7        30.34F FOG
SPARTA*        CLOUDY    44  44 100 E6        30.33F
$$

ILZ064>066-069>071-074>076-080>082-084>086-088>090-092>094-222000-
SOUTH-CENTRAL ILLINOIS

CITY           SKY/WX    TMP DP  RH WIND       PRES   REMARKS
CARBONDALE     CLOUDY    45  44  97 E6        30.34F
CAIRO*         CLOUDY    46  45  95 NE7       30.33F
EFFINGHAM*     CLOUDY    45  44  98 E9        30.38F FOG
MARION         CLOUDY    45  45 100 E5        30.36F
MT. VERNON     CLOUDY    46  44  93 E8        30.35F
CENTRALIA*     CLOUDY    46  45  95 E6        30.34F
SALEM*         CLOUDY    46  43  87 E7        30.35F
METROPOLIS*    CLOUDY    49  46  90 CALM      30.34F
$$

ILZ067-068-072-073-078-083-087-091-222000-
SOUTHEAST ILLINOIS

CITY           SKY/WX    TMP DP  RH WIND       PRES   REMARKS
LAWRENCEVILLE  CLOUDY    47  46  97 NE7       30.37F FOG
FLORA*         CLOUDY    47  44  89 E5        30.36F
FAIRFIELD*     CLOUDY    46  46  99 CALM      30.35F FOG
HARRISBURG*    CLOUDY    47  46  97 E3        30.36F
ROBINSON*      CLOUDY    45  42  91 NE8       30.39F
CARMI*         CLOUDY    47  45  92 CALM      30.36F
$$

ABBREVIATIONS USED IN REMARKS
   TC - TEMPERATURE IN CELSIUS
  WCI - WIND CHILL INDEX
   HX - HEAT INDEX
  VSB - VISIBILITY
$$





USA.gov is the U.S. government's official web portal to all federal, state and local government web resources and services.